owner,sensor,date,latitude,longitude,relative_humidity,qcFlag 
COMPS,ioos:station:USF.COMPS:FHP:1,2015-02-01T00:00:00Z,28.1530,-82.8010,77.59,1111122 
COMPS,ioos:station:USF.COMPS:FHP:1,2015-02-01T00:06:00Z,28.1530,-82.8010,66.4,1111122 
COMPS,ioos:station:USF.COMPS:FHP:1,2015-02-01T00:12:00Z,28.1530,-82.8010,62.68,1111122 
COMPS,ioos:station:USF.COMPS:FHP:1,2015-02-01T00:18:00Z,28.1530,-82.8010,60.29,1111122 
COMPS,ioos:station:USF.COMPS:FHP:1,2015-02-01T00:24:00Z,28.1530,-82.8010,59.86,1111122 
COMPS,ioos:station:USF.COMPS:FHP:1,2015-02-01T00:30:00Z,28.1530,-82.8010,59.73,1111122 
COMPS,ioos:station:USF.COMPS:FHP:1,2015-02-01T00:36:00Z,28.1530,-82.8010,60.02,1111122 
COMPS,ioos:station:USF.COMPS:FHP:1,2015-02-01T00:42:00Z,28.1530,-82.8010,60.18,1111122 
COMPS,ioos:station:USF.COMPS:FHP:1,2015-02-01T00:48:00Z,28.1530,-82.8010,59.58,1111122 
COMPS,ioos:station:USF.COMPS:FHP:1,2015-02-01T00:54:00Z,28.1530,-82.8010,58.66,1111122 
COMPS,ioos:station:USF.COMPS:FHP:1,2015-02-01T01:00:00Z,28.1530,-82.8010,58.14,1111122 
COMPS,ioos:station:USF.COMPS:FHP:1,2015-02-01T01:06:00Z,28.1530,-82.8010,57.41,1111122 
COMPS,ioos:station:USF.COMPS:FHP:1,2015-02-01T01:12:00Z,28.1530,-82.8010,57.26,1111122 
COMPS,ioos:station:USF.COMPS:FHP:1,2015-02-01T01:18:00Z,28.1530,-82.8010,57.48,1111122 
COMPS,ioos:station:USF.COMPS:FHP:1,2015-02-01T01:24:00Z,28.1530,-82.8010,57.96,1111122 
COMPS,ioos:station:USF.COMPS:FHP:1,2015-02-01T01:30:00Z,28.1530,-82.8010,58.35,1111122 
COMPS,ioos:station:USF.COMPS:FHP:1,2015-02-01T01:36:00Z,28.1530,-82.8010,58.83,1111122 
COMPS,ioos:station:USF.COMPS:FHP:1,2015-02-01T01:42:00Z,28.1530,-82.8010,58.32,1111122 
COMPS,ioos:station:USF.COMPS:FHP:1,2015-02-01T01:48:00Z,28.1530,-82.8010,58.95,1111122 
COMPS,ioos:station:USF.COMPS:FHP:1,2015-02-01T01:54:00Z,28.1530,-82.8010,59.48,1111122 
COMPS,ioos:station:USF.COMPS:FHP:1,2015-02-01T02:00:00Z,28.1530,-82.8010,59.27,1111122 
COMPS,ioos:station:USF.COMPS:FHP:1,2015-02-01T02:06:00Z,28.1530,-82.8010,59.57,1111122 
COMPS,ioos:station:USF.COMPS:FHP:1,2015-02-01T02:12:00Z,28.1530,-82.8010,60.03,1111122 
COMPS,ioos:station:USF.COMPS:FHP:1,2015-02-01T02:18:00Z,28.1530,-82.8010,60.44,1111122 
COMPS,ioos:station:USF.COMPS:FHP:1,2015-02-01T02:24:00Z,28.1530,-82.8010,61.02,1111122 
COMPS,ioos:station:USF.COMPS:FHP:1,2015-02-01T02:30:00Z,28.1530,-82.8010,61.14,1111122 
COMPS,ioos:station:USF.COMPS:FHP:1,2015-02-01T02:36:00Z,28.1530,-82.8010,61.12,1111122 
COMPS,ioos:station:USF.COMPS:FHP:1,2015-02-01T02:42:00Z,28.1530,-82.8010,61.62,1111122 
COMPS,ioos:station:USF.COMPS:FHP:1,2015-02-01T02:48:00Z,28.1530,-82.8010,62.12,1111122 
COMPS,ioos:station:USF.COMPS:FHP:1,2015-02-01T02:54:00Z,28.1530,-82.8010,62.68,1111122 
COMPS,ioos:station:USF.COMPS:FHP:1,2015-02-01T03:00:00Z,28.1530,-82.8010,63.29,1111122 
COMPS,ioos:station:USF.COMPS:FHP:1,2015-02-01T03:06:00Z,28.1530,-82.8010,63.47,1111122 
COMPS,ioos:station:USF.COMPS:FHP:1,2015-02-01T03:12:00Z,28.1530,-82.8010,64.07,1111122 
COMPS,ioos:station:USF.COMPS:FHP:1,2015-02-01T03:18:00Z,28.1530,-82.8010,64.65,1111122 
COMPS,ioos:station:USF.COMPS:FHP:1,2015-02-01T03:24:00Z,28.1530,-82.8010,64.5,1111122 
COMPS,ioos:station:USF.COMPS:FHP:1,2015-02-01T03:30:00Z,28.1530,-82.8010,65.1,1111122 
COMPS,ioos:station:USF.COMPS:FHP:1,2015-02-01T03:36:00Z,28.1530,-82.8010,65.97,1111122 
COMPS,ioos:station:USF.COMPS:FHP:1,2015-02-01T03:42:00Z,28.1530,-82.8010,65.69,1111122 
COMPS,ioos:station:USF.COMPS:FHP:1,2015-02-01T03:48:00Z,28.1530,-82.8010,66.48,1111122 
COMPS,ioos:station:USF.COMPS:FHP:1,2015-02-01T03:54:00Z,28.1530,-82.8010,67.07,1111122 
COMPS,ioos:station:USF.COMPS:FHP:1,2015-02-01T04:00:00Z,28.1530,-82.8010,67.38,1111122 
COMPS,ioos:station:USF.COMPS:FHP:1,2015-02-01T04:06:00Z,28.1530,-82.8010,67.78,1111122 
COMPS,ioos:station:USF.COMPS:FHP:1,2015-02-01T04:12:00Z,28.1530,-82.8010,68.31,1111122 
COMPS,ioos:station:USF.COMPS:FHP:1,2015-02-01T04:18:00Z,28.1530,-82.8010,68.51,1111122 
COMPS,ioos:station:USF.COMPS:FHP:1,2015-02-01T04:24:00Z,28.1530,-82.8010,68.73,1111122 
COMPS,ioos:station:USF.COMPS:FHP:1,2015-02-01T04:30:00Z,28.1530,-82.8010,68.77,1111122 
COMPS,ioos:station:USF.COMPS:FHP:1,2015-02-01T04:36:00Z,28.1530,-82.8010,68.93,1111122 
COMPS,ioos:station:USF.COMPS:FHP:1,2015-02-01T04:42:00Z,28.1530,-82.8010,69.45,1111122 
COMPS,ioos:station:USF.COMPS:FHP:1,2015-02-01T04:48:00Z,28.1530,-82.8010,69.51,1111122 
COMPS,ioos:station:USF.COMPS:FHP:1,2015-02-01T04:54:00Z,28.1530,-82.8010,69.73,1111122 
COMPS,ioos:station:USF.COMPS:FHP:1,2015-02-01T05:00:00Z,28.1530,-82.8010,70.29,1111122 
COMPS,ioos:station:USF.COMPS:FHP:1,2015-02-01T05:06:00Z,28.1530,-82.8010,70.96,1111122 
COMPS,ioos:station:USF.COMPS:FHP:1,2015-02-01T05:12:00Z,28.1530,-82.8010,71.43,1111122 
COMPS,ioos:station:USF.COMPS:FHP:1,2015-02-01T05:18:00Z,28.1530,-82.8010,71.75,1111122 
COMPS,ioos:station:USF.COMPS:FHP:1,2015-02-01T05:24:00Z,28.1530,-82.8010,72.1,1111122 
COMPS,ioos:station:USF.COMPS:FHP:1,2015-02-01T05:30:00Z,28.1530,-82.8010,72.34,1111122 
COMPS,ioos:station:USF.COMPS:FHP:1,2015-02-01T05:36:00Z,28.1530,-82.8010,72.24,1111122 
COMPS,ioos:station:USF.COMPS:FHP:1,2015-02-01T05:42:00Z,28.1530,-82.8010,72.2,1111122 
COMPS,ioos:station:USF.COMPS:FHP:1,2015-02-01T05:48:00Z,28.1530,-82.8010,71.97,1111122 
COMPS,ioos:station:USF.COMPS:FHP:1,2015-02-01T05:54:00Z,28.1530,-82.8010,71.82,1111122 
COMPS,ioos:station:USF.COMPS:FHP:1,2015-02-01T06:00:00Z,28.1530,-82.8010,72.54,1111122 
COMPS,ioos:station:USF.COMPS:FHP:1,2015-02-01T06:06:00Z,28.1530,-82.8010,72.68,1111122 
COMPS,ioos:station:USF.COMPS:FHP:1,2015-02-01T06:12:00Z,28.1530,-82.8010,72.5,1111122 
COMPS,ioos:station:USF.COMPS:FHP:1,2015-02-01T06:18:00Z,28.1530,-82.8010,72.43,1111122 
COMPS,ioos:station:USF.COMPS:FHP:1,2015-02-01T06:24:00Z,28.1530,-82.8010,72.56,1111122 
COMPS,ioos:station:USF.COMPS:FHP:1,2015-02-01T06:30:00Z,28.1530,-82.8010,72.59,1111122 
COMPS,ioos:station:USF.COMPS:FHP:1,2015-02-01T06:36:00Z,28.1530,-82.8010,72.79,1111122 
COMPS,ioos:station:USF.COMPS:FHP:1,2015-02-01T06:42:00Z,28.1530,-82.8010,73.07,1111122 
COMPS,ioos:station:USF.COMPS:FHP:1,2015-02-01T06:48:00Z,28.1530,-82.8010,73.31,1111122 
COMPS,ioos:station:USF.COMPS:FHP:1,2015-02-01T06:54:00Z,28.1530,-82.8010,73.9,1111122 
COMPS,ioos:station:USF.COMPS:FHP:1,2015-02-01T07:00:00Z,28.1530,-82.8010,74.04,1111122 
COMPS,ioos:station:USF.COMPS:FHP:1,2015-02-01T07:06:00Z,28.1530,-82.8010,74.17,1111122 
COMPS,ioos:station:USF.COMPS:FHP:1,2015-02-01T07:12:00Z,28.1530,-82.8010,74.28,1111122 
COMPS,ioos:station:USF.COMPS:FHP:1,2015-02-01T07:18:00Z,28.1530,-82.8010,74.63,1111122 
COMPS,ioos:station:USF.COMPS:FHP:1,2015-02-01T07:24:00Z,28.1530,-82.8010,74.62,1111122 
COMPS,ioos:station:USF.COMPS:FHP:1,2015-02-01T07:30:00Z,28.1530,-82.8010,74.46,1111122 
COMPS,ioos:station:USF.COMPS:FHP:1,2015-02-01T07:36:00Z,28.1530,-82.8010,74.98,1111122 
COMPS,ioos:station:USF.COMPS:FHP:1,2015-02-01T07:42:00Z,28.1530,-82.8010,75.1,1111122 
COMPS,ioos:station:USF.COMPS:FHP:1,2015-02-01T07:48:00Z,28.1530,-82.8010,74.83,1111122 
COMPS,ioos:station:USF.COMPS:FHP:1,2015-02-01T07:54:00Z,28.1530,-82.8010,74.78,1111122 
COMPS,ioos:station:USF.COMPS:FHP:1,2015-02-01T08:00:00Z,28.1530,-82.8010,74.95,1111122 
COMPS,ioos:station:USF.COMPS:FHP:1,2015-02-01T08:06:00Z,28.1530,-82.8010,75.5,1111122 
COMPS,ioos:station:USF.COMPS:FHP:1,2015-02-01T08:12:00Z,28.1530,-82.8010,75.76,1111122 
COMPS,ioos:station:USF.COMPS:FHP:1,2015-02-01T08:18:00Z,28.1530,-82.8010,75.84,1111122 
COMPS,ioos:station:USF.COMPS:FHP:1,2015-02-01T08:24:00Z,28.1530,-82.8010,76.18,1111122 
COMPS,ioos:station:USF.COMPS:FHP:1,2015-02-01T08:30:00Z,28.1530,-82.8010,76.27,1111122 
COMPS,ioos:station:USF.COMPS:FHP:1,2015-02-01T08:36:00Z,28.1530,-82.8010,76.27,1111122 
COMPS,ioos:station:USF.COMPS:FHP:1,2015-02-01T08:42:00Z,28.1530,-82.8010,76.84,1111122 
COMPS,ioos:station:USF.COMPS:FHP:1,2015-02-01T08:48:00Z,28.1530,-82.8010,76.85,1111122 
COMPS,ioos:station:USF.COMPS:FHP:1,2015-02-01T08:54:00Z,28.1530,-82.8010,76.87,1111122 
COMPS,ioos:station:USF.COMPS:FHP:1,2015-02-01T09:00:00Z,28.1530,-82.8010,76.9,1111122 
COMPS,ioos:station:USF.COMPS:FHP:1,2015-02-01T09:06:00Z,28.1530,-82.8010,77.08,1111122 
COMPS,ioos:station:USF.COMPS:FHP:1,2015-02-01T09:12:00Z,28.1530,-82.8010,77.63,1111122 
COMPS,ioos:station:USF.COMPS:FHP:1,2015-02-01T09:18:00Z,28.1530,-82.8010,77.3,1111122 
COMPS,ioos:station:USF.COMPS:FHP:1,2015-02-01T09:24:00Z,28.1530,-82.8010,77.87,1111122 
COMPS,ioos:station:USF.COMPS:FHP:1,2015-02-01T09:30:00Z,28.1530,-82.8010,78.25,1111122 
COMPS,ioos:station:USF.COMPS:FHP:1,2015-02-01T09:36:00Z,28.1530,-82.8010,78.39,1111122 
COMPS,ioos:station:USF.COMPS:FHP:1,2015-02-01T09:42:00Z,28.1530,-82.8010,78.33,1111122 
COMPS,ioos:station:USF.COMPS:FHP:1,2015-02-01T09:48:00Z,28.1530,-82.8010,78.38,1111122 
COMPS,ioos:station:USF.COMPS:FHP:1,2015-02-01T09:54:00Z,28.1530,-82.8010,78.89,1111122 
COMPS,ioos:station:USF.COMPS:FHP:1,2015-02-01T10:00:00Z,28.1530,-82.8010,78.6,1111122 
COMPS,ioos:station:USF.COMPS:FHP:1,2015-02-01T10:06:00Z,28.1530,-82.8010,78.56,1111122 
COMPS,ioos:station:USF.COMPS:FHP:1,2015-02-01T10:12:00Z,28.1530,-82.8010,78.41,1111122 
COMPS,ioos:station:USF.COMPS:FHP:1,2015-02-01T10:18:00Z,28.1530,-82.8010,78.19,1111122 
COMPS,ioos:station:USF.COMPS:FHP:1,2015-02-01T10:24:00Z,28.1530,-82.8010,77.1,1111122 
COMPS,ioos:station:USF.COMPS:FHP:1,2015-02-01T10:30:00Z,28.1530,-82.8010,76.81,1111122 
COMPS,ioos:station:USF.COMPS:FHP:1,2015-02-01T10:36:00Z,28.1530,-82.8010,76.82,1111122 
COMPS,ioos:station:USF.COMPS:FHP:1,2015-02-01T10:42:00Z,28.1530,-82.8010,76.33,1111122 
COMPS,ioos:station:USF.COMPS:FHP:1,2015-02-01T10:48:00Z,28.1530,-82.8010,75.74,1111122 
COMPS,ioos:station:USF.COMPS:FHP:1,2015-02-01T10:54:00Z,28.1530,-82.8010,75.67,1111122 
COMPS,ioos:station:USF.COMPS:FHP:1,2015-02-01T11:00:00Z,28.1530,-82.8010,75.51,1111122 
COMPS,ioos:station:USF.COMPS:FHP:1,2015-02-01T11:06:00Z,28.1530,-82.8010,75.33,1111122 
COMPS,ioos:station:USF.COMPS:FHP:1,2015-02-01T11:12:00Z,28.1530,-82.8010,75.32,1111122 
COMPS,ioos:station:USF.COMPS:FHP:1,2015-02-01T11:18:00Z,28.1530,-82.8010,75.31,1111122 
COMPS,ioos:station:USF.COMPS:FHP:1,2015-02-01T11:24:00Z,28.1530,-82.8010,75.75,1111122 
COMPS,ioos:station:USF.COMPS:FHP:1,2015-02-01T11:30:00Z,28.1530,-82.8010,76.06,1111122 
COMPS,ioos:station:USF.COMPS:FHP:1,2015-02-01T11:36:00Z,28.1530,-82.8010,76.7,1111122 
COMPS,ioos:station:USF.COMPS:FHP:1,2015-02-01T11:42:00Z,28.1530,-82.8010,76.83,1111122 
COMPS,ioos:station:USF.COMPS:FHP:1,2015-02-01T11:48:00Z,28.1530,-82.8010,77.34,1111122 
COMPS,ioos:station:USF.COMPS:FHP:1,2015-02-01T11:54:00Z,28.1530,-82.8010,77.89,1111122 
COMPS,ioos:station:USF.COMPS:FHP:1,2015-02-01T12:00:00Z,28.1530,-82.8010,78.23,1111122 
COMPS,ioos:station:USF.COMPS:FHP:1,2015-02-01T12:06:00Z,28.1530,-82.8010,78.65,1111122 
COMPS,ioos:station:USF.COMPS:FHP:1,2015-02-01T12:12:00Z,28.1530,-82.8010,79.02,1111122 
COMPS,ioos:station:USF.COMPS:FHP:1,2015-02-01T12:18:00Z,28.1530,-82.8010,78.88,1111122 
COMPS,ioos:station:USF.COMPS:FHP:1,2015-02-01T12:24:00Z,28.1530,-82.8010,78.71,1111122 
COMPS,ioos:station:USF.COMPS:FHP:1,2015-02-01T12:30:00Z,28.1530,-82.8010,79.29,1111122 
COMPS,ioos:station:USF.COMPS:FHP:1,2015-02-01T12:36:00Z,28.1530,-82.8010,79.18,1111122 
COMPS,ioos:station:USF.COMPS:FHP:1,2015-02-01T12:42:00Z,28.1530,-82.8010,79.22,1111122 
COMPS,ioos:station:USF.COMPS:FHP:1,2015-02-01T12:48:00Z,28.1530,-82.8010,79.17,1111122 
COMPS,ioos:station:USF.COMPS:FHP:1,2015-02-01T12:54:00Z,28.1530,-82.8010,78.92,1111122 
COMPS,ioos:station:USF.COMPS:FHP:1,2015-02-01T13:00:00Z,28.1530,-82.8010,78.47,1111122 
COMPS,ioos:station:USF.COMPS:FHP:1,2015-02-01T13:06:00Z,28.1530,-82.8010,78.09,1111122 
COMPS,ioos:station:USF.COMPS:FHP:1,2015-02-01T13:12:00Z,28.1530,-82.8010,77.35,1111122 
COMPS,ioos:station:USF.COMPS:FHP:1,2015-02-01T13:18:00Z,28.1530,-82.8010,76.98,1111122 
COMPS,ioos:station:USF.COMPS:FHP:1,2015-02-01T13:24:00Z,28.1530,-82.8010,76.13,1111122 
COMPS,ioos:station:USF.COMPS:FHP:1,2015-02-01T13:30:00Z,28.1530,-82.8010,75.49,1111122 
COMPS,ioos:station:USF.COMPS:FHP:1,2015-02-01T13:36:00Z,28.1530,-82.8010,75.31,1111122 
COMPS,ioos:station:USF.COMPS:FHP:1,2015-02-01T13:42:00Z,28.1530,-82.8010,75.09,1111122 
COMPS,ioos:station:USF.COMPS:FHP:1,2015-02-01T13:48:00Z,28.1530,-82.8010,74.26,1111122 
COMPS,ioos:station:USF.COMPS:FHP:1,2015-02-01T13:54:00Z,28.1530,-82.8010,73.81,1111122 
COMPS,ioos:station:USF.COMPS:FHP:1,2015-02-01T14:00:00Z,28.1530,-82.8010,72.65,1111122 
COMPS,ioos:station:USF.COMPS:FHP:1,2015-02-01T14:06:00Z,28.1530,-82.8010,72.08,1111122 
COMPS,ioos:station:USF.COMPS:FHP:1,2015-02-01T14:12:00Z,28.1530,-82.8010,70.43,1111122 
COMPS,ioos:station:USF.COMPS:FHP:1,2015-02-01T14:18:00Z,28.1530,-82.8010,69.64,1111122 
COMPS,ioos:station:USF.COMPS:FHP:1,2015-02-01T14:24:00Z,28.1530,-82.8010,69.44,1111122 
COMPS,ioos:station:USF.COMPS:FHP:1,2015-02-01T14:30:00Z,28.1530,-82.8010,68.4,1111122 
COMPS,ioos:station:USF.COMPS:FHP:1,2015-02-01T14:36:00Z,28.1530,-82.8010,67.88,1111122 
COMPS,ioos:station:USF.COMPS:FHP:1,2015-02-01T14:42:00Z,28.1530,-82.8010,67.09,1111122 
COMPS,ioos:station:USF.COMPS:FHP:1,2015-02-01T14:48:00Z,28.1530,-82.8010,66.26,1111122 
COMPS,ioos:station:USF.COMPS:FHP:1,2015-02-01T14:54:00Z,28.1530,-82.8010,65.87,1111122 
COMPS,ioos:station:USF.COMPS:FHP:1,2015-02-01T15:00:00Z,28.1530,-82.8010,64.55,1111122 
COMPS,ioos:station:USF.COMPS:FHP:1,2015-02-01T15:06:00Z,28.1530,-82.8010,64.75,1111122 
COMPS,ioos:station:USF.COMPS:FHP:1,2015-02-01T15:12:00Z,28.1530,-82.8010,63.25,1111122 
COMPS,ioos:station:USF.COMPS:FHP:1,2015-02-01T15:18:00Z,28.1530,-82.8010,62.66,1111122 
COMPS,ioos:station:USF.COMPS:FHP:1,2015-02-01T15:24:00Z,28.1530,-82.8010,61.6,1111122 
COMPS,ioos:station:USF.COMPS:FHP:1,2015-02-01T15:30:00Z,28.1530,-82.8010,60.7,1111122 
COMPS,ioos:station:USF.COMPS:FHP:1,2015-02-01T15:36:00Z,28.1530,-82.8010,59.67,1111122 
COMPS,ioos:station:USF.COMPS:FHP:1,2015-02-01T15:42:00Z,28.1530,-82.8010,61.89,1111122 
COMPS,ioos:station:USF.COMPS:FHP:1,2015-02-01T15:48:00Z,28.1530,-82.8010,60.4,1111122 
COMPS,ioos:station:USF.COMPS:FHP:1,2015-02-01T15:54:00Z,28.1530,-82.8010,59.48,1111122 
COMPS,ioos:station:USF.COMPS:FHP:1,2015-02-01T16:00:00Z,28.1530,-82.8010,59.81,1111122 
COMPS,ioos:station:USF.COMPS:FHP:1,2015-02-01T16:06:00Z,28.1530,-82.8010,60.18,1111122 
COMPS,ioos:station:USF.COMPS:FHP:1,2015-02-01T16:12:00Z,28.1530,-82.8010,59.99,1111122 
COMPS,ioos:station:USF.COMPS:FHP:1,2015-02-01T16:18:00Z,28.1530,-82.8010,60.03,1111122 
COMPS,ioos:station:USF.COMPS:FHP:1,2015-02-01T16:24:00Z,28.1530,-82.8010,60.17,1111122 
COMPS,ioos:station:USF.COMPS:FHP:1,2015-02-01T16:30:00Z,28.1530,-82.8010,60.07,1111122 
COMPS,ioos:station:USF.COMPS:FHP:1,2015-02-01T16:36:00Z,28.1530,-82.8010,60.03,1111122 
COMPS,ioos:station:USF.COMPS:FHP:1,2015-02-01T16:42:00Z,28.1530,-82.8010,60.65,1111122 
COMPS,ioos:station:USF.COMPS:FHP:1,2015-02-01T16:48:00Z,28.1530,-82.8010,60.46,1111122 
COMPS,ioos:station:USF.COMPS:FHP:1,2015-02-01T16:54:00Z,28.1530,-82.8010,59.57,1111122 
COMPS,ioos:station:USF.COMPS:FHP:1,2015-02-01T17:00:00Z,28.1530,-82.8010,59.16,1111122 
COMPS,ioos:station:USF.COMPS:FHP:1,2015-02-01T17:06:00Z,28.1530,-82.8010,59.75,1111122 
COMPS,ioos:station:USF.COMPS:FHP:1,2015-02-01T17:12:00Z,28.1530,-82.8010,59.44,1111122 
COMPS,ioos:station:USF.COMPS:FHP:1,2015-02-01T17:18:00Z,28.1530,-82.8010,58.85,1111122 
COMPS,ioos:station:USF.COMPS:FHP:1,2015-02-01T17:24:00Z,28.1530,-82.8010,58.23,1111122 
COMPS,ioos:station:USF.COMPS:FHP:1,2015-02-01T17:30:00Z,28.1530,-82.8010,58.61,1111122 
COMPS,ioos:station:USF.COMPS:FHP:1,2015-02-01T17:36:00Z,28.1530,-82.8010,57.37,1111122 
COMPS,ioos:station:USF.COMPS:FHP:1,2015-02-01T17:42:00Z,28.1530,-82.8010,58.37,1111122 
COMPS,ioos:station:USF.COMPS:FHP:1,2015-02-01T17:48:00Z,28.1530,-82.8010,59.23,1111122 
COMPS,ioos:station:USF.COMPS:FHP:1,2015-02-01T17:54:00Z,28.1530,-82.8010,60.23,1111122 
COMPS,ioos:station:USF.COMPS:FHP:1,2015-02-01T18:00:00Z,28.1530,-82.8010,58.47,1111122 
COMPS,ioos:station:USF.COMPS:FHP:1,2015-02-01T18:06:00Z,28.1530,-82.8010,56.59,1111122 
COMPS,ioos:station:USF.COMPS:FHP:1,2015-02-01T18:12:00Z,28.1530,-82.8010,57.49,1111122 
COMPS,ioos:station:USF.COMPS:FHP:1,2015-02-01T18:18:00Z,28.1530,-82.8010,54.75,1111122 
COMPS,ioos:station:USF.COMPS:FHP:1,2015-02-01T18:24:00Z,28.1530,-82.8010,53.91,1111122 
COMPS,ioos:station:USF.COMPS:FHP:1,2015-02-01T18:30:00Z,28.1530,-82.8010,54.7,1111122 
COMPS,ioos:station:USF.COMPS:FHP:1,2015-02-01T18:36:00Z,28.1530,-82.8010,54.47,1111122 
COMPS,ioos:station:USF.COMPS:FHP:1,2015-02-01T18:42:00Z,28.1530,-82.8010,54.13,1111122 
COMPS,ioos:station:USF.COMPS:FHP:1,2015-02-01T18:48:00Z,28.1530,-82.8010,53.5,1111122 
COMPS,ioos:station:USF.COMPS:FHP:1,2015-02-01T18:54:00Z,28.1530,-82.8010,52.34,1111122 
COMPS,ioos:station:USF.COMPS:FHP:1,2015-02-01T19:00:00Z,28.1530,-82.8010,52.15,1111122 
COMPS,ioos:station:USF.COMPS:FHP:1,2015-02-01T19:06:00Z,28.1530,-82.8010,53.41,1111122 
COMPS,ioos:station:USF.COMPS:FHP:1,2015-02-01T19:12:00Z,28.1530,-82.8010,52.33,1111122 
COMPS,ioos:station:USF.COMPS:FHP:1,2015-02-01T19:18:00Z,28.1530,-82.8010,52.26,1111122 
COMPS,ioos:station:USF.COMPS:FHP:1,2015-02-01T19:24:00Z,28.1530,-82.8010,51.67,1111122 
COMPS,ioos:station:USF.COMPS:FHP:1,2015-02-01T19:30:00Z,28.1530,-82.8010,50.04,1111122 
COMPS,ioos:station:USF.COMPS:FHP:1,2015-02-01T19:36:00Z,28.1530,-82.8010,50.61,1111122 
COMPS,ioos:station:USF.COMPS:FHP:1,2015-02-01T19:42:00Z,28.1530,-82.8010,50.71,1111122 
COMPS,ioos:station:USF.COMPS:FHP:1,2015-02-01T19:48:00Z,28.1530,-82.8010,50.72,1111122 
COMPS,ioos:station:USF.COMPS:FHP:1,2015-02-01T19:54:00Z,28.1530,-82.8010,50.58,1111122 
COMPS,ioos:station:USF.COMPS:FHP:1,2015-02-01T20:00:00Z,28.1530,-82.8010,51.36,1111122 
COMPS,ioos:station:USF.COMPS:FHP:1,2015-02-01T20:06:00Z,28.1530,-82.8010,53.94,1111122 
COMPS,ioos:station:USF.COMPS:FHP:1,2015-02-01T20:12:00Z,28.1530,-82.8010,52.44,1111122 
COMPS,ioos:station:USF.COMPS:FHP:1,2015-02-01T20:18:00Z,28.1530,-82.8010,51.28,1111122 
COMPS,ioos:station:USF.COMPS:FHP:1,2015-02-01T20:24:00Z,28.1530,-82.8010,50.89,1111122 
COMPS,ioos:station:USF.COMPS:FHP:1,2015-02-01T20:30:00Z,28.1530,-82.8010,52.01,1111122 
COMPS,ioos:station:USF.COMPS:FHP:1,2015-02-01T20:36:00Z,28.1530,-82.8010,65.54,1111122 
COMPS,ioos:station:USF.COMPS:FHP:1,2015-02-01T20:42:00Z,28.1530,-82.8010,66.23,1111122 
COMPS,ioos:station:USF.COMPS:FHP:1,2015-02-01T20:48:00Z,28.1530,-82.8010,66.36,1111122 
COMPS,ioos:station:USF.COMPS:FHP:1,2015-02-01T20:54:00Z,28.1530,-82.8010,70.28,1111122 
COMPS,ioos:station:USF.COMPS:FHP:1,2015-02-01T21:00:00Z,28.1530,-82.8010,71.64,1111122 
COMPS,ioos:station:USF.COMPS:FHP:1,2015-02-01T21:06:00Z,28.1530,-82.8010,69.73,1111122 
COMPS,ioos:station:USF.COMPS:FHP:1,2015-02-01T21:12:00Z,28.1530,-82.8010,67.9,1111122 
COMPS,ioos:station:USF.COMPS:FHP:1,2015-02-01T21:18:00Z,28.1530,-82.8010,69.55,1111122 
COMPS,ioos:station:USF.COMPS:FHP:1,2015-02-01T21:24:00Z,28.1530,-82.8010,73.73,1111122 
COMPS,ioos:station:USF.COMPS:FHP:1,2015-02-01T21:30:00Z,28.1530,-82.8010,73.24,1111122 
COMPS,ioos:station:USF.COMPS:FHP:1,2015-02-01T21:36:00Z,28.1530,-82.8010,73.48,1111122 
COMPS,ioos:station:USF.COMPS:FHP:1,2015-02-01T21:42:00Z,28.1530,-82.8010,73.42,1111122 
COMPS,ioos:station:USF.COMPS:FHP:1,2015-02-01T21:48:00Z,28.1530,-82.8010,71.12,1111122 
COMPS,ioos:station:USF.COMPS:FHP:1,2015-02-01T21:54:00Z,28.1530,-82.8010,71.45,1111122 
COMPS,ioos:station:USF.COMPS:FHP:1,2015-02-01T22:00:00Z,28.1530,-82.8010,68.97,1111122 
COMPS,ioos:station:USF.COMPS:FHP:1,2015-02-01T22:06:00Z,28.1530,-82.8010,72.72,1111122 
COMPS,ioos:station:USF.COMPS:FHP:1,2015-02-01T22:12:00Z,28.1530,-82.8010,73.17,1111122 
COMPS,ioos:station:USF.COMPS:FHP:1,2015-02-01T22:18:00Z,28.1530,-82.8010,71.7,1111122 
COMPS,ioos:station:USF.COMPS:FHP:1,2015-02-01T22:24:00Z,28.1530,-82.8010,72.02,1111122 
COMPS,ioos:station:USF.COMPS:FHP:1,2015-02-01T22:30:00Z,28.1530,-82.8010,72.36,1111122 
COMPS,ioos:station:USF.COMPS:FHP:1,2015-02-01T22:36:00Z,28.1530,-82.8010,72.64,1111122 
COMPS,ioos:station:USF.COMPS:FHP:1,2015-02-01T22:42:00Z,28.1530,-82.8010,72.25,1111122 
COMPS,ioos:station:USF.COMPS:FHP:1,2015-02-01T22:48:00Z,28.1530,-82.8010,72.72,1111122 
COMPS,ioos:station:USF.COMPS:FHP:1,2015-02-01T22:54:00Z,28.1530,-82.8010,74.02,1111122 
COMPS,ioos:station:USF.COMPS:FHP:1,2015-02-01T23:00:00Z,28.1530,-82.8010,75.05,1111122 
COMPS,ioos:station:USF.COMPS:FHP:1,2015-02-01T23:06:00Z,28.1530,-82.8010,74.99,1111122 
COMPS,ioos:station:USF.COMPS:FHP:1,2015-02-01T23:12:00Z,28.1530,-82.8010,74.56,1111122 
COMPS,ioos:station:USF.COMPS:FHP:1,2015-02-01T23:18:00Z,28.1530,-82.8010,73.5,1111122 
COMPS,ioos:station:USF.COMPS:FHP:1,2015-02-01T23:24:00Z,28.1530,-82.8010,71.48,1111122 
COMPS,ioos:station:USF.COMPS:FHP:1,2015-02-01T23:30:00Z,28.1530,-82.8010,72.46,1111122 
COMPS,ioos:station:USF.COMPS:FHP:1,2015-02-01T23:36:00Z,28.1530,-82.8010,72.65,1111122 
COMPS,ioos:station:USF.COMPS:FHP:1,2015-02-01T23:42:00Z,28.1530,-82.8010,72.82,1111122 
COMPS,ioos:station:USF.COMPS:FHP:1,2015-02-01T23:48:00Z,28.1530,-82.8010,72.14,1111122 
COMPS,ioos:station:USF.COMPS:FHP:1,2015-02-01T23:54:00Z,28.1530,-82.8010,72.18,1111122 
COMPS,ioos:station:USF.COMPS:FHP:1,2015-02-02T00:00:00Z,28.1530,-82.8010,73.54,1111122 
COMPS,ioos:station:USF.COMPS:FHP:1,2015-02-02T00:06:00Z,28.1530,-82.8010,73.65,1111122 
COMPS,ioos:station:USF.COMPS:FHP:1,2015-02-02T00:12:00Z,28.1530,-82.8010,73.72,1111122 
COMPS,ioos:station:USF.COMPS:FHP:1,2015-02-02T00:18:00Z,28.1530,-82.8010,75.0,1111122 
COMPS,ioos:station:USF.COMPS:FHP:1,2015-02-02T00:24:00Z,28.1530,-82.8010,76.01,1111122 
COMPS,ioos:station:USF.COMPS:FHP:1,2015-02-02T00:30:00Z,28.1530,-82.8010,77.48,1111122 
COMPS,ioos:station:USF.COMPS:FHP:1,2015-02-02T00:36:00Z,28.1530,-82.8010,78.76,1111122 
COMPS,ioos:station:USF.COMPS:FHP:1,2015-02-02T00:42:00Z,28.1530,-82.8010,78.12,1111122 
COMPS,ioos:station:USF.COMPS:FHP:1,2015-02-02T00:48:00Z,28.1530,-82.8010,75.29,1111122 
COMPS,ioos:station:USF.COMPS:FHP:1,2015-02-02T00:54:00Z,28.1530,-82.8010,73.95,1111122 
COMPS,ioos:station:USF.COMPS:FHP:1,2015-02-02T01:00:00Z,28.1530,-82.8010,72.87,1111122 
COMPS,ioos:station:USF.COMPS:FHP:1,2015-02-02T01:06:00Z,28.1530,-82.8010,73.36,1111122 
COMPS,ioos:station:USF.COMPS:FHP:1,2015-02-02T01:12:00Z,28.1530,-82.8010,73.64,1111122 
COMPS,ioos:station:USF.COMPS:FHP:1,2015-02-02T01:18:00Z,28.1530,-82.8010,74.21,1111122 
COMPS,ioos:station:USF.COMPS:FHP:1,2015-02-02T01:24:00Z,28.1530,-82.8010,73.78,1111122 
COMPS,ioos:station:USF.COMPS:FHP:1,2015-02-02T01:30:00Z,28.1530,-82.8010,73.8,1111122 
COMPS,ioos:station:USF.COMPS:FHP:1,2015-02-02T01:36:00Z,28.1530,-82.8010,76.48,1111122 
COMPS,ioos:station:USF.COMPS:FHP:1,2015-02-02T01:42:00Z,28.1530,-82.8010,78.54,1111122 
COMPS,ioos:station:USF.COMPS:FHP:1,2015-02-02T01:48:00Z,28.1530,-82.8010,78.91,1111122 
COMPS,ioos:station:USF.COMPS:FHP:1,2015-02-02T01:54:00Z,28.1530,-82.8010,78.78,1111122 
COMPS,ioos:station:USF.COMPS:FHP:1,2015-02-02T02:00:00Z,28.1530,-82.8010,78.9,1111122 
COMPS,ioos:station:USF.COMPS:FHP:1,2015-02-02T02:06:00Z,28.1530,-82.8010,79.89,1111122 
COMPS,ioos:station:USF.COMPS:FHP:1,2015-02-02T02:12:00Z,28.1530,-82.8010,80.66,1111122 
COMPS,ioos:station:USF.COMPS:FHP:1,2015-02-02T02:18:00Z,28.1530,-82.8010,81.15,1111122 
COMPS,ioos:station:USF.COMPS:FHP:1,2015-02-02T02:24:00Z,28.1530,-82.8010,81.65,1111122 
COMPS,ioos:station:USF.COMPS:FHP:1,2015-02-02T02:30:00Z,28.1530,-82.8010,81.94,1111122 
COMPS,ioos:station:USF.COMPS:FHP:1,2015-02-02T02:36:00Z,28.1530,-82.8010,80.05,1111122 
COMPS,ioos:station:USF.COMPS:FHP:1,2015-02-02T02:42:00Z,28.1530,-82.8010,78.52,1111122 
COMPS,ioos:station:USF.COMPS:FHP:1,2015-02-02T02:48:00Z,28.1530,-82.8010,78.94,1111122 
COMPS,ioos:station:USF.COMPS:FHP:1,2015-02-02T02:54:00Z,28.1530,-82.8010,78.97,1111122 
COMPS,ioos:station:USF.COMPS:FHP:1,2015-02-02T03:00:00Z,28.1530,-82.8010,79.31,1111122 
COMPS,ioos:station:USF.COMPS:FHP:1,2015-02-02T03:06:00Z,28.1530,-82.8010,79.91,1111122 